Weather History for KOMK - April, 2014

Change the Weather History Date:

Monday, April 14, 2014

  Actual Average Record
Temperature  
Mean Temperature 47 °F 50 °F  
Max Temperature 67 °F 63 °F 83 °F (1943)
Min Temperature 26 °F 36 °F 22 °F (1953)
Degree Days  
Heating Degree Days 18 15  
Month to date heating degree days 219 233  
Since 1 July heating degree days 5959 5823  
Cooling Degree Days 0 0  
Month to date cooling degree days 0 0  
Year to date cooling degree days 0 0  
Moisture  
Dew Point 19 °F    
Average Humidity 38    
Maximum Humidity 63    
Minimum Humidity 12    
Precipitation  
Precipitation 0.00 in 0.04 in 0.67 in (1942)
Month to date precipitation T 0.48  
Year to date precipitation 2.98 4.64  
Sea Level Pressure  
Sea Level Pressure 30.10 in    
Wind  
Wind Speed 6 mph (SSW)    
Max Wind Speed 17 mph    
Max Gust Speed 25 mph    
Visibility 10 miles    
Events      
T = Trace of Precipitation, MM = Missing Value Source: NWS Daily Summary

Daily Weather History Graph

Daily Weather History Graph

Search for Another Location

Airport or City:

Trip Planner

Search our weather history database for the weather conditions in past years. The results will help you decide how hot, cold, wet, or windy it might be!

Date:

Astronomy

Apr. 14, 2014 Rise Set
Actual Time 6:09 AM PDT 7:47 PM PDT
Civil Twilight 5:36 AM PDT 8:20 PM PDT
Nautical Twilight 4:56 AM PDT 9:01 PM PDT
Astronomical Twilight 4:12 AM PDT 9:45 PM PDT
Moon 7:31 PM PDT (4/14) 5:47 AM PDT (4/14)
Length of Visible Light 14h 44m
Length of Day
13h 38m
Full, 100% of the Moon is Illuminated
Apr 14
Full
Apr 15
Full
Apr 22
Last Quarter
Apr 28
New
May 6
First Quarter

Hourly Weather History & Observations

Time (PDT) Temp. Windchill Dew Point Humidity Pressure Visibility Wind Dir Wind Speed Gust Speed Precip Events Conditions
12:53 AM 41.0 °F 35.8 °F 19.9 °F 43% 30.27 in 10.0 mi West 8.1 mph - N/A   Clear
2:53 AM 36.0 °F 31.1 °F 19.0 °F 50% 30.26 in 10.0 mi West 5.8 mph - N/A   Clear
3:53 AM 35.1 °F 31.0 °F 19.9 °F 54% 30.25 in 10.0 mi West 4.6 mph - N/A   Clear
4:53 AM 30.0 °F 26.5 °F 19.0 °F 64% 30.26 in 10.0 mi South 3.5 mph - N/A   Clear
5:53 AM 30.0 °F - 19.9 °F 66% 30.25 in 10.0 mi Calm Calm - N/A   Clear
6:53 AM 33.1 °F 28.7 °F 21.0 °F 61% 30.25 in 10.0 mi WNW 4.6 mph - N/A   Clear
7:53 AM 41.0 °F - 23.0 °F 49% 30.24 in 10.0 mi Calm Calm - N/A   Clear
8:53 AM 45.0 °F 42.6 °F 23.0 °F 42% 30.23 in 10.0 mi SE 4.6 mph - N/A   Clear
9:53 AM 48.9 °F - 23.0 °F 36% 30.21 in 10.0 mi South 5.8 mph - N/A   Clear
10:53 AM 54.0 °F - 24.1 °F 31% 30.18 in 10.0 mi South 6.9 mph - N/A   Clear
11:53 AM 61.0 °F - 21.0 °F 21% 30.14 in 10.0 mi South 9.2 mph - N/A   Clear
12:53 PM 63.0 °F - 18.0 °F 18% 30.10 in 10.0 mi SSW 11.5 mph 18.4 mph N/A   Clear
1:53 PM 64.9 °F - 19.0 °F 17% 30.07 in 10.0 mi SSW 10.4 mph 25.3 mph N/A   Clear
2:53 PM 64.0 °F - 12.0 °F 13% 30.04 in 10.0 mi SSE 9.2 mph 19.6 mph N/A   Clear
3:53 PM 66.0 °F - 12.9 °F 13% 30.01 in 10.0 mi SSW 6.9 mph - N/A   Clear
4:53 PM 64.9 °F - 12.0 °F 13% 29.98 in 10.0 mi SSE 15.0 mph - N/A   Clear
5:53 PM 64.9 °F - 12.0 °F 13% 29.96 in 10.0 mi SE 12.7 mph - N/A   Clear
6:53 PM 62.1 °F - 14.0 °F 15% 29.94 in 10.0 mi SE 10.4 mph - N/A   Clear
7:53 PM 57.9 °F - 17.1 °F 20% 29.92 in 10.0 mi SE 8.1 mph - N/A   Clear
8:53 PM 53.1 °F - 17.1 °F 24% 29.93 in 10.0 mi SSW 8.1 mph - N/A   Clear
9:53 PM 48.9 °F - 21.0 °F 33% 29.93 in 10.0 mi West 5.8 mph - N/A   Clear
10:53 PM 48.0 °F - 21.9 °F 36% 29.93 in 10.0 mi Calm Calm - N/A   Clear
11:53 PM 48.0 °F - 23.0 °F 37% 29.91 in 10.0 mi WSW 3.5 mph - N/A   Clear